Résultats

Cross Nativitée C01 : 2des Filles. Édition 2018.

0 Km
23/03/2018 à 08:20:00 - ()
101 arrivant(e)s.





Place▲ Temps Dossard Nom Prenom Categ #Categ Sexe #Sexe Club Vit Moy Diplôme Partager
1 00:05:27 423 PEYRE MANON CAF 1 F 1 2-6 14,31
2 00:05:33 246 SANNA AURELIE CAF 2 F 2 2-1 14,05
3 00:05:35 329 N:Anonyme 329 P:Anonyme 329 CAF 3 F 3 2-4 13,97
4 00:05:40 387 SIROT CLARA CAF 4 F 4 2-5 13,76
5 00:05:46 256 BOONEKAMP MATHILDE CAF 5 F 5 2-2 13,53
6 00:05:46 459 NICASTRO ALICE CAF 6 F 6 2-7 13,53
7 00:05:51 320 SUZOR ANAELLE CAF 7 F 7 2-3 13,33
8 00:05:57 281 RAYMONDO JULIE CAF 8 F 8 2-2 13,11
9 00:05:58 340 LEMAIRE LANNA CAF 9 F 9 2-4 13,07
10 00:06:02 244 NICOLLE ILLONA MIF 1 F 10 2-1 12,93
11 00:06:04 443 COURSON ELEA CAF 10 F 11 2-7 12,86
12 00:06:10 431 TILLARD LOU CAF 11 F 12 2-6 12,65
13 00:06:12 428 ROUZAUD PAULINE CAF 12 F 13 2-6 12,58
14 00:06:15 427 RODRIGUEZ CLEMENTINE CAF 13 F 14 2-6 12,48
15 00:06:15 398 ZAKARIAN AMELIE CAF 14 F 15 2-5 12,48
16 00:06:16 370 GUICHARD JADE MIF 2 F 16 2-5 12,45
17 00:06:16 338 HENNO HORTENSE CAF 15 F 17 2-4 12,45
18 00:06:18 265 GANTER CECILE MIF 3 F 18 2-2 12,38
19 00:06:18 356 TANKOSIC EVA CAF 16 F 19 2-4 12,38
20 00:06:27 324 BENIER ALEXANDRA CAF 17 F 20 2-4 12,09
21 00:06:28 418 JUBERT PAULINE CAF 18 F 21 2-6 12,06
22 00:06:28 289 BENCHENAFI ANISSA MIF 4 F 22 2-3 12,06
23 00:06:30 429 RUHLING CHARLOTTE CAF 19 F 23 2-6 12,00
24 00:06:30 433 VERA ELODIE CAF 20 F 24 2-6 12,00
25 00:06:31 405 BONDIL VICTORIA CAF 21 F 25 2-6 11,97
26 00:06:35 286 AUGENIE LISE CAF 22 F 26 2-3 11,85
27 00:06:36 328 CHARBIT YAEL CAF 23 F 27 2-4 11,82
28 00:06:37 277 POMEL AMELIE CAF 24 F 28 2-2 11,79
29 00:06:37 220 CHIARIGLIONE MATHILDE CAF 25 F 29 2-1 11,79
30 00:06:38 468 VIDAL NOA CAF 26 F 30 2-7 11,76
31 00:06:38 264 DWORSKI GIULIETTA JUF 1 F 31 2-2 11,76
32 00:06:40 327 CATAU CLARA CAF 27 F 32 2-4 11,70
33 00:06:40 454 HOARAU JEANNE CAF 28 F 33 2-7 11,70
34 00:06:41 314 PARISOT MANON MIF 5 F 34 2-3 11,67
35 00:06:41 278 PONS-DE-VINCENT LOUISE CAF 29 F 35 2-2 11,67
36 00:06:43 251 ANDRE-GALLIS LILA CAF 30 F 36 2-2 11,61
37 00:06:46 392 TOUTIN HELOISE CAF 31 F 37 2-5 11,53
38 00:06:49 400 BARONE AMELIE CAF 32 F 38 2-6 11,44
39 00:06:51 446 DRIEUX MADISON CAF 33 F 39 2-7 11,39
40 00:06:52 279 POUSSARDIN ELISA CAF 34 F 40 2-2 11,36
41 00:06:53 235 LE-MEUR MATHILDE CAF 35 F 41 2-1 11,33
42 00:06:54 214 BARTHELEMY MANON CAF 36 F 42 2-1 11,30
43 00:06:56 318 RODRIGUES JULIETTE CAF 37 F 43 2-3 11,25
44 00:06:57 343 MAROTTE COLOMBE CAF 38 F 44 2-4 11,22
45 00:06:59 357 THOMASSIN EVA CAF 39 F 45 2-4 11,17
46 00:07:01 311 MESLIERE LOU CAF 40 F 46 2-3 11,12
47 00:07:01 460 PAYAN LISA CAF 41 F 47 2-7 11,12
48 00:07:03 441 CHEFDOR CLAIRE CAF 42 F 48 2-7 11,06
49 00:07:03 309 KHATCHOUGUIAN-TOUROIAN ANAHITE CAF 43 F 49 2-3 11,06
50 00:07:04 404 BLANC LOU-ANNE CAF 44 F 50 2-6 11,04
51 00:07:05 407 CHARLAIX SMILLA CAF 45 F 51 2-6 11,01
52 00:07:06 307 HERLAND DORIANE CAF 46 F 52 2-3 10,99
53 00:07:10 276 PIOT-D'HALLUIN VICTORIA CAF 47 F 53 2-2 10,88
54 00:07:10 238 MARIN YSALINE CAF 48 F 54 2-1 10,88
55 00:07:11 408 CHAVRIER INES CAF 49 F 55 2-6 10,86
56 00:07:19 355 SPINNEWYN JEANNE MIF 6 F 56 2-4 10,66
57 00:07:20 349 NADAL INES CAF 50 F 57 2-4 10,64
58 00:07:21 274 MILLARD JUSTINE CAF 51 F 58 2-2 10,61
59 00:07:22 462 ROUGY MANON CAF 52 F 59 2-7 10,59
60 00:07:23 217 BERTIN JULINE CAF 53 F 60 2-1 10,56
61 00:07:23 442 CHENEAU LAURE CAF 54 F 61 2-7 10,56
62 00:07:23 259 BRIERE INES CAF 55 F 62 2-2 10,56
63 00:07:23 422 PENEAU LUCIE CAF 56 F 63 2-6 10,56
64 00:07:26 267 HUBLAU PAULINE CAF 57 F 64 2-2 10,49
65 00:07:28 464 SANTIAGO CHLOE CAF 58 F 65 2-7 10,45
66 00:07:30 224 DECOMMER EUGENIE CAF 59 F 66 2-1 10,40
67 00:07:31 321 THAON PAULINE CAF 60 F 67 2-3 10,38
68 00:07:36 360 VIDAL ELODIE CAF 61 F 68 2-4 10,26
69 00:07:39 379 NASSI AMELIE MIF 7 F 69 2-5 10,20
70 00:07:40 218 BERTRAND SOLENE CAF 62 F 70 2-1 10,17
71 00:07:42 222 DAVID ANNE-LYSE CAF 63 F 71 2-1 10,13
72 00:07:44 221 DARMON SOLENE CAF 64 F 72 2-1 10,09
73 00:07:45 453 GORGODIAN SUZANNE CAF 65 F 73 2-7 10,06
74 00:07:45 458 MENDES SARAH CAF 66 F 74 2-7 10,06
75 00:07:46 335 FERRY LUCILE CAF 67 F 75 2-4 10,04
76 00:07:47 239 MARTINEZ MARIE CAF 68 F 76 2-1 10,02
77 00:07:56 280 RABADEUX ELENA CAF 69 F 77 2-2 9,83
78 00:07:58 232 JACOULET ANOUK CAF 70 F 78 2-1 9,79
79 00:08:02 271 MARIDAT JEANNE CAF 71 F 79 2-2 9,71
80 00:08:05 437 AYMARD LIZ CAF 72 F 80 2-7 9,65
81 00:08:11 339 LE-MOAL AMANDINE CAF 73 F 81 2-4 9,53
82 00:08:19 213 BARTHE ALIX CAF 74 F 82 2-1 9,38
83 00:08:26 445 DEVALLOIS ELISA CAF 75 F 83 2-7 9,25
84 00:08:28 471 WOLFF CHARLOTTE CAF 76 F 84 2-7 9,21
85 00:08:34 219 BONHOMME EMMA CAF 77 F 85 2-1 9,11
86 00:08:36 374 JAULGEY MANON MIF 8 F 86 2-5 9,07
87 00:08:37 241 MEYNIEUX BLANCHE CAF 78 F 87 2-1 9,05
88 00:08:38 382 RAPALLINI JADE CAF 79 F 88 2-5 9,03
89 00:08:39 290 N:Anonyme 290 P:Anonyme 290 CAF 80 F 89 2-3 9,02
90 00:08:41 315 POHIER-PLANTEL LENA MIF 9 F 90 2-3 8,98
91 00:08:54 332 DAUMAS CAROLINE CAF 81 F 91 2-4 8,76
92 00:09:00 351 RAMEL BLANCHE CAF 82 F 92 2-4 8,67
93 00:09:04 297 CHOVELON EMMA CAF 83 F 93 2-3 8,60
94 00:09:05 383 RICHAUD OCEANE CAF 84 F 94 2-5 8,59
95 00:09:06 377 MARTIN AMBRE CAF 85 F 95 2-5 8,57
96 00:09:14 465 SOLE LOLA CAF 86 F 96 2-7 8,45
97 00:09:16 243 MOLLER LOUISE CAF 87 F 97 2-1 8,42
98 00:09:32 389 TEDESCO CLARA CAF 88 F 98 2-5 8,18
99 00:09:34 391 TOURET SOPHIE CAF 89 F 99 2-5 8,15
100 00:09:35 358 TRANCHANT MAE CAF 90 F 100 2-4 8,14